Find STARLINK-37490

NORAD ID: 799500964 Int'l Des: 2026-132T Constellation: starlink operational

Current View

Loading 3D Globe...

About STARLINK-37490

STARLINK-37490 (NORAD 799500964) is a starlink constellation satellite launched Jun 8, 2026

About STARLINK-37490

Description loading...

Upcoming Passes

Passes for default location (London). Set your location on the main map for personalized predictions.

Altitude History

Loading altitude history...

Two-Line Element Set

1 99999C 2026132T 26163.67895832 .05269100 00000-0 506330-3 0 1633
2 99999 53.1630 346.5425 0010807 281.6796 263.9103 16.08319044 10
Epoch: Jun 12, 2026 • Age: 6 hours